Rbgn^[z[y[W
メイン
   新天体発見情報
     Comet C/2018 P5 (PANSTARRS)
投稿するにはまず登録を

フラット表示 前のトピック | 次のトピック
投稿者 スレッド
佐藤裕久
投稿日時: 2018-8-22 22:01
モデレータ
登録日: 2005-6-12
居住地: 日本
投稿: 2420
オンライン
Comet C/2018 P5 (PANSTARRS)

Y. RamanjoolooとR. Wainscoatの通報によると、8月11日UT、Haleakala にある1.8-m Pan-
STARRS1 Ritchey-Chretien望遠鏡で得た4枚のw-バンドCCD露出から他の彗星を発見した。
後に確認された6月と7月の多数の発見前のPan-STARRS1観測がある。
この天体の頭部はFWHM(半値全幅)がシーイング約1".5で約1".65に見え、p.a.240°に向かって
約5"伸びた細いダストの尾を示している。
M. Micheliの書き込みによると、8月12.39日UT、R. J. WainscoatとD. WoodworthがMauna Kea
にある3.6-m Canada-France-Hawaii TelescopeによるCCD観測を得た(Micheli, Wainscoatと
Ramanjoolooが測定)。p.a. 約240°に約5" の尾が見え、コマのFWHM(半値全幅)はシーイング
0".9で1".2に見えた。

発見位置は次のとおり、

     2018 UT             R.A. (2000) Decl.       Mag.
     June 16.58682   21 46 18.37   - 4 52 08.1   21.7
          16.59597   21 46 18.42   - 4 52 07.1   21.9
          23.55034   21 46 31.75   - 4 41 17.9   21.8
          23.56300   21 46 31.74   - 4 41 16.9   21.5
          23.57563   21 46 31.72   - 4 41 15.9   21.8
          23.58829   21 46 31.69   - 4 41 15.0   21.9
     July 13.46549   21 44 07.54   - 4 30 17.0   21.7
          13.47788   21 44 07.37   - 4 30 17.3   21.5
          13.49022   21 44 07.18   - 4 30 17.6   21.2
          13.50266   21 44 06.99   - 4 30 17.7   21.2
     Aug. 11.45034   21 34 26.75   - 5 06 40.8   20.9
          11.46145   21 34 26.47   - 5 06 42.2   21.2
          11.47253   21 34 26.20   - 5 06 43.7   21.1
          11.48359   21 34 25.93   - 5 06 45.2   21.2

楕円軌道要素と位置推算表は次のとおり、

Orbital elements:
    C/2018 P5 (PANSTARRS)
Epoch 2019 Mar. 18.0 TT = JDT 2458560.5
T 2019 Feb. 26.26434 TT                                 MPCW
q   4.5757312            (2000.0)            P               Q
n   0.02166403     Peri.  131.63999     +0.97417981     +0.21306535
a  12.7441223      Node   216.24241     -0.22571751     +0.92648679
e   0.6409536      Incl.    7.25676     +0.00503006     +0.31020216
P  45.50
From 34 observations 2018 June 16-Aug. 17, mean residual 0".3.

    C/2018 P5 (PANSTARRS)
Epoch 2064 Oct. 7.0 TT = JDT 2475200.5
T 2064 Oct. 13.58404 TT                                 MPCW
q   4.5650988            (2000.0)            P               Q
n   0.02162766     Peri.  131.87254     +0.97469577     +0.21070341
a  12.7584038      Node   216.14934     -0.22345976     +0.92712867
e   0.6421889      Incl.    7.26994     +0.00582199     +0.30989758
P  45.57
From 34 observations 2018 June 16-Aug. 17, mean residual 0".3.

    C/2018 P5 (PANSTARRS)
Epoch 2018 Mar. 23.0 TT = JDT 2458200.5
T 2019 Feb. 26.26174 TT                                 MPCW
q   4.5758405            (2000.0)            P               Q
n   0.02171843     Peri.  131.63582     +0.97416235     +0.21314519
a  12.7228296      Node   216.24189     -0.22579342     +0.92646888
e   0.6403441      Incl.    7.25684     +0.00500499     +0.31020082
P  45.38
From 34 observations 2018 June 16-Aug. 17, mean residual 0".3.

Ephemeris:
    C/2018 P5 (PANSTARRS)
Date    TT    R. A. (2000) Decl.     Delta      r     Elong.  Phase   m1
2018 07 19    21 42 43.6 -04 32 40   3.8951  4.7916   148.6     6.4  20.8
...
2018 08 03    21 37 45.1 -04 50 22   3.7851  4.7643   162.9     3.6  20.7
...
2018 08 11    21 34 37.6 -05 05 42   3.7509  4.7504   169.2     2.3  20.6
...
2018 08 17    21 32 12.2 -05 19 20   3.7372  4.7403   171.2     1.9  20.6
2018 08 18    21 31 48.0 -05 21 45   3.7359  4.7387   171.1     1.9  20.6
2018 08 19    21 31 23.8 -05 24 12   3.7349  4.7370   170.9     1.9  20.6
...
2018 08 25    21 29 01.3 -05 39 35   3.7348  4.7273   167.7     2.6  20.6
...
2018 09 02    21 26 03.8 -06 01 16   3.7504  4.7148   160.7     4.0  20.6
...
2018 09 17    21 21 42.8 -06 42 08   3.8258  4.6927   146.0     6.9  20.6

(CBET 4550、MPEC 2018-Q36)

フラット表示 前のトピック | 次のトピック

題名 投稿者 日時
 » Comet C/2018 P5 (PANSTARRS) 佐藤裕久 2018-8-22 22:01

投稿するにはまず登録を
 
© 1999 Tsutomu Seki.